User: anonymous   Login
Location: Unspecified
(0.0000°N, 0.0000°E)
Time: 09:28:57
(UTC+00:00)
Language:

CZ-3B DEB - Orbit

View from above orbital plane
View from above orbital plane
View from above satellite
View from above satellite

Ground track
Ground track

The orbit data is extracted from the following two-line orbital elements,

1 40186U 11077K   24105.40806191 -.00000280  00000-0  00000-0 0  9997
2 40186  25.9311 286.0930 7290800 275.2644 342.2520  1.88699704 84121
Epoch (UTC): 14 April 2024 09:47:36
Eccentricity: 0.7290800
inclination: 25.9311°
perigee height: 1116 km
apogee height: 41452 km
right ascension of ascending node: 286.0930°
argument of perigee: 275.2644°
revolutions per day: 1.88699704
mean anomaly at epoch: 342.2520°
orbit number at epoch: 8412

The dashed part of the orbit path shows where the satellite is in the earth's shadow,  

DLR